Regional Weather Roundup
Issued by NWS Bismarck, ND

Home | Current Version | Previous Version | Text Only | Print | Product List | Glossary On
Versions: 1 2 3 4 5 6 7 8 9 10 11 12 13 14 15 16 17 18 19 20 21 22 23 24 25 26 27 28 29 30 31 32 33 34 35 36 37 38 39 40 41 42 43 44 45 46 47 48 49 50
000
ASUS43 KBIS 231310
RWRBIS

NWR BROADCAST TEXT
NATIONAL WEATHER SERVICE BISMARCK ND
800 AM CDT SAT AUG 23 2014

NOTE: "FAIR" INDICATES FEW OR NO CLOUDS BELOW 12,000 FEET WITH NO
SIGNIFICANT WEATHER AND/OR OBSTRUCTIONS TO VISIBILITY.


CITY           SKY/WX    TMP DP  RH WIND       PRES   REMARKS
WILLISTON      CLOUDY    58  52  80 E16       30.07S
MINOT          CLOUDY    56  53  90 NE12      30.10R
MINOT AFB      CLOUDY    57  56  99 NE14      30.10R
BISMARCK       CLOUDY    61  58  90 NE12      30.02F
DICKINSON      LGT RAIN  59  58  96 E15       29.98F
GARRISON         N/A     57  56  96 E15       30.05F
HETTINGER ARPT LGT RAIN  61  59  93 E22G31    29.96F
JAMESTOWN      CLOUDY    60  59  96 NE8       30.02F FOG
BEACH          LGT RAIN  57  57 100 E21G31    29.98F
CARRINGTON     CLOUDY    57  57 100 NE12G17   30.06F FOG
CROSBY         CLOUDY    54  54 100 NE16G22   30.13S
HARVEY         CLOUDY    57  57 100 NE13      30.06F
HAZEN          CLOUDY    59  55  88 E10G16    30.05S
LINTON         LGT RAIN  61  61 100 NE16      29.99R
MANDAN         LGT RAIN  59  57  94 E14       30.03S
OAKES            N/A     63  63 100 NE13      29.98F FOG
RUGBY          CLOUDY    55  55 100 NE9       30.09F
STANLEY        CLOUDY    55  55 100 NE10G26   30.09F FOG
TIOGA          CLOUDY    54  54 100 E17G23    30.11F
WATFORD CITY   CLOUDY    55  55 100 E15       30.03F
$$

CITY           SKY/WX    TMP DP  RH WIND       PRES   REMARKS
GRAND FORKS    FOG       59  57  94 N14       30.04F VSB 3/4
GRAND FORKS AF CLOUDY    58  58 100 NE13      30.06F
DEVILS LAKE    CLOUDY    57  52  82 NE13G20   30.06F
FARGO          FOG       66  65  96 N7        30.00F VSB 1/2
CANDO          CLOUDY    57  54  88 NE14G21   30.09F
CAVALIER       CLOUDY    57  55  94 N12       30.10F FOG
GRAFTON        CLOUDY    57  57 100 N15       30.07F
GWINNER        CLOUDY    64  64 100 NE12      30.00F VSB 0
LANGDON        CLOUDY    55  55 100 NE12      30.10F FOG
ROLLA          CLOUDY    54  54 100 NE13      30.13F
WALHALLA       FOG       55  55 100 N9        30.12S VSB 3/4
$$

CITY           SKY/WX    TMP DP  RH WIND       PRES   REMARKS
ABERDEEN       LGT RAIN  64  64 100 NE16G24   29.93F FOG
MOBRIDGE       LGT RAIN  63  62  97 NE18G26   29.90F
BUFFALO          N/A     61  59  93 E17G26    29.87R
RAPID CITY     LGT RAIN  64  61  90 CALM      29.90F
GLASGOW        LGT RAIN  55  54  96 NE24G33   30.01F
SIDNEY         CLOUDY    57  55  94 NE15      30.03F
WOLF POINT     RAIN      57  54  89 NE25G31   30.03R FOG
GLENDIVE       CLOUDY    59  57  94 E20G26    29.98F
MILES CITY     CLOUDY    63  61  93 NE8       29.90F
BAKER          LGT RAIN  62  60  93 E20G26    29.95S
$$

CITY           SKY/WX    TMP DP  RH WIND       PRES   REMARKS
BILLINGS       LGT RAIN  57  57 100 SW8       29.89F VSB 1/4
GREAT FALLS    HVY RAIN  48  48 100 NW15      30.09R FOG
REGINA         CLOUDY    54  48  82 NE14G21   30.21S
ESTEVAN        CLOUDY    54  52  94 NE15      30.14F
$$



USA.gov is the U.S. government's official web portal to all federal, state and local government web resources and services.